Temp
70 69 70 72 70 68 66 70 66 72 68 70 69 69 67 66 67 72 72 72 73 73 71 74 75 76 75 74 76 80 78 79 80 79 83 85 85 85 85 85 85 85 85 85
66 67 69 68 71 70 70 67 68 67 67 72 73 72 65 65 66 67 70 71 72 74 71 73 73 74 74 73 74 76 79 80 80 78 79 81 83 81 85 84 84 84 84 85
61 65 64 59 68 70 69 69 71 65 72 70 67 67 67 65 66 66 68 70 70 71 70 70 72 69 70 70 71 73 74 75 78 80 78 78 80 77 77 83 83 83 83 84
63 61 50 68 69 74 71 67 69 66 68 70 69 69 69 70 68 66 70 70 71 72 71 71 68 68 69 70 71 73 73 74 77 78 79 78 77 76 79 80 81 82 81 79
58 58 63 61 64 66 67 65 67 67 66 67 68 69 66 70 71 70 69 70 71 73 72 71 68 68 69 68 70 71 70 71 75 75 74 75 78 78 80 79 77 76 76 76
56 55 52 68 69 73 72 62 67 69 66 65 67 63 67 70 71 70 70 72 72 73 72 71 67 68 69 68 68 70 71 70 73 74 74 74 74 76 79 77 76 76 76 74
57 57 62 66 69 72 59 65 69 70 69 67 65 74 71 72 70 71 71 71 72 72 70 68 67 68 67 67 66 69 71 71 73 75 74 75 75 76 77 76 75 74 73 73
53 55 53 69 67 63 67 70 72 69 69 67 65 69 69 70 69 69 69 70 72 70 68 68 67 67 64 63 65 69 71 72 74 73 74 75 75 75 77 76 76 75 74 71
60 62 62 65 63 66 67 69 71 69 69 67 65 67 67 67 68 69 67 67 70 71 70 69 68 66 63 63 64 66 69 69 72 72 71 74 73 72 74 76 78 76 72 69
58 61 61 63 64 65 68 69 70 72 68 67 64 65 66 67 67 68 68 69 70 70 67 66 67 67 65 63 63 65 66 68 70 70 68 69 71 69 69 70 77 77 73 72
60 59 63 66 64 64 64 66 65 67 64 62 64 63 65 63 64 65 66 67 69 69 69 67 67 67 67 65 65 64 65 68 70 71 68 67 60 58 62 58 59 67 69 67
61 63 64 66 64 64 63 62 65 63 62 63 64 63 65 65 65 65 66 67 68 68 68 67 67 66 65 64 64 65 66 66 67 69 66 66 65 61 52 50 48 47 47 54
66 67 71 71 69 68 65 65 67 67 66 63 65 65 65 63 65 60 67 67 67 67 66 66 66 65 65 64 64 65 66 68 69 65 63 63 62 63 63 58 50 47 46 45
67 65 62 65 62 66 65 66 65 67 66 65 64 66 66 65 63 65 65 66 66 65 65 65 65 63 64 65 64 65 67 56 67 67 64 61 60 60 62 64 65 66 52 51
65 68 69 66 63 65 66 65 63 63 63 63 64 65 65 64 65 65 65 66 66 66 65 65 63 62 63 63 63 64 66 67 65 65 63 59 59 59 61 63 63 62 64 57
62 64 65 62 62 63 64 65 63 62 63 62 63 63 64 66 65 64 64 64 63 64 64 64 62 63 63 62 62 65 65 58 59 63 61 59 58 57 57 59 59 60 60 60
57 58 63 61 61 62 64 65 65 63 62 62 63 64 64 63 63 63 63 64 63 63 63 63 62 63 63 63 61 62 63 63 56 62 59 56 55 54 55 56 57 56 54 51
65 63 64 63 63 63 63 64 64 64 62 63 63 63 63 62 62 62 62 63 63 63 64 64 63 63 63 63 62 62 62 58 56 55 55 55 52 52 52 52 52 53 52 51
66 65 66 64 65 64 63 63 64 65 63 63 62 61 63 63 63 62 63 63 62 62 61 64 59 62 62 59 60 63 61 59 54 53 52 51 52 51 50 50 49 49 49 49
61 62 63 61 62 64 63 64 64 63 63 63 63 61 61 61 63 62 62 61 62 64 64 65 64 63 61 59 57 62 60 56 52 50 50 50 50 50 50 47 49 47 47 47
61 61 61 60 61 63 64 64 63 62 61 63 62 61 61 61 63 62 60 61 61 63 65 60 65 64 63 60 60 55 53 52 49 49 48 48 49 49 49 49 48 47 46 46
60 60 59 60 61 61 62 63 63 62 61 61 62 62 61 60 61 61 61 62 65 54 64 66 65 58 60 58 58 56 49 49 48 47 47 47 46 47 47 47 46 45 45 45
59 59 59 59 59 59 60 61 62 62 61 60 60 61 62 63 63 61 55 59 65 61 67 68 59 55 55 62 59 56 51 47 47 47 46 47 46 46 47 46 45 45 44 44
57 58 58 59 59 59 57 57 60 61 61 61 62 63 63 61 54 64 67 58 55 58 65 67 61 53 55 64 61 58 56 50 48 47 47 45 47 47 46 46 45 44 44 44
56 56 56 58 58 59 58 58 59 60 60 61 61 61 63 63 62 62 67 68 54 61 69 52 51 52 65 65 61 61 57 54 50 48 47 48 46 46 46 47 46 45 45 46
49 52 56 58 60 60 61 61 61 61 61 61 58 61 59 60 59 62 64 61 67 59 68 67 67 66 67 65 63 61 61 57 54 52 48 47 48 47 47 47 46 46 46 45
51 49 52 53 53 56 56 55 56 56 57 59 58 56 54 55 56 61 59 66 67 68 68 69 69 64 68 65 63 61 61 59 55 55 52 48 48 48 49 48 48 49 48 47
MSLP
1005.58 1005.58 1005.55 1005.25 1005.43 1005.91 1005.96 1005.83 1005.87 1005.55 1006.53 1007.41 1008.81 1010.31 1011.17 1011.73 1012.28 1012.13 1012.07 1012.10 1011.99 1011.99 1012.05 1012.21 1012.21 1012.29 1012.55 1012.52 1012.77 1012.80 1012.60 1012.46 1012.56 1012.65 1012.27 1012.37 1012.34 1012.15 1012.06 1011.97 1011.90 1011.97 1011.98 1012.17
1005.68 1005.75 1005.66 1005.32 1005.34 1005.60 1005.84 1006.19 1006.40 1006.61 1006.88 1007.68 1009.00 1010.40 1011.79 1012.41 1012.60 1012.54 1012.43 1012.68 1012.58 1012.26 1012.22 1011.49 1011.94 1012.62 1013.10 1013.07 1013.11 1012.24 1013.03 1012.40 1012.47 1012.47 1012.08 1012.02 1012.16 1012.00 1011.72 1011.72 1011.50 1011.47 1011.52 1011.60
1005.58 1005.96 1006.01 1005.57 1005.16 1005.35 1005.69 1006.18 1006.12 1006.44 1006.82 1008.26 1009.51 1010.29 1011.35 1012.28 1012.48 1012.62 1012.93 1012.99 1013.00 1013.08 1013.47 1013.10 1011.47 1011.95 1013.48 1013.67 1013.02 1013.61 1013.12 1012.86 1012.47 1012.45 1012.10 1011.80 1012.09 1011.70 1011.57 1011.38 1011.47 1011.20 1011.19 1011.39
1005.90 1006.42 1005.34 1004.87 1005.51 1005.38 1005.60 1006.36 1006.82 1007.32 1007.79 1008.41 1009.40 1010.44 1011.41 1012.09 1012.47 1012.66 1012.85 1013.20 1013.26 1013.30 1013.39 1013.18 1012.43 1011.71 1013.76 1013.92 1014.58 1014.41 1013.94 1013.49 1012.94 1012.51 1012.08 1011.95 1011.74 1011.21 1010.72 1011.18 1011.03 1010.69 1010.81 1011.04
1006.06 1005.76 1005.22 1005.53 1005.79 1005.67 1005.53 1006.46 1007.25 1007.49 1008.41 1009.11 1009.68 1010.57 1011.54 1012.19 1012.43 1012.74 1013.00 1013.33 1013.23 1013.18 1013.28 1013.17 1013.15 1013.83 1013.64 1014.50 1015.12 1014.50 1014.72 1014.35 1013.52 1013.16 1012.65 1012.06 1011.51 1011.23 1011.10 1011.03 1010.85 1010.99 1011.31 1010.82
1006.29 1005.34 1004.53 1004.38 1005.16 1005.67 1005.79 1006.09 1006.98 1007.47 1008.27 1009.00 1009.29 1009.54 1010.21 1011.53 1012.07 1012.70 1013.19 1013.38 1013.46 1013.54 1013.80 1014.06 1014.54 1014.46 1014.91 1015.72 1015.21 1014.96 1014.76 1014.19 1013.55 1012.76 1012.12 1011.78 1011.36 1010.91 1010.73 1010.60 1010.47 1010.59 1010.81 1010.61
1005.72 1005.28 1005.00 1005.40 1005.64 1006.19 1005.95 1005.91 1006.35 1007.09 1007.75 1008.71 1008.79 1007.92 1009.47 1011.13 1011.91 1012.62 1013.20 1013.56 1013.92 1014.19 1014.65 1015.37 1015.83 1016.01 1016.14 1016.15 1015.99 1015.23 1014.64 1013.81 1013.16 1012.33 1011.98 1011.69 1011.18 1010.57 1010.41 1010.13 1010.22 1010.34 1010.32 1009.64
1005.93 1005.76 1005.61 1005.96 1006.46 1006.48 1006.28 1006.07 1006.08 1006.81 1007.57 1009.19 1010.31 1010.07 1010.33 1011.32 1012.30 1012.97 1013.29 1013.73 1014.44 1014.64 1015.16 1015.78 1016.26 1016.47 1016.62 1016.11 1015.43 1014.72 1014.24 1013.52 1013.06 1012.89 1012.18 1011.53 1011.19 1010.57 1010.14 1010.12 1010.33 1010.03 1009.57 1009.11
1005.65 1005.64 1006.35 1006.71 1006.99 1007.04 1006.94 1006.46 1006.53 1007.06 1007.83 1009.12 1010.19 1010.61 1011.33 1011.89 1012.55 1013.53 1013.85 1013.80 1014.34 1014.72 1014.99 1015.49 1015.85 1016.05 1016.14 1016.29 1015.82 1015.44 1014.84 1014.02 1013.52 1013.21 1012.49 1011.98 1011.61 1011.12 1010.35 1010.18 1010.26 1010.05 1009.88 1009.93
1006.39 1006.68 1006.69 1006.83 1007.25 1007.38 1007.09 1006.97 1007.59 1008.16 1008.99 1009.58 1009.48 1010.44 1011.46 1011.81 1012.38 1013.04 1013.25 1013.63 1014.29 1014.57 1014.63 1015.01 1015.51 1015.69 1015.86 1015.99 1015.72 1015.22 1014.82 1014.42 1013.96 1013.50 1012.98 1012.62 1012.14 1011.97 1011.66 1011.18 1010.67 1010.50 1010.51 1010.45
1005.62 1006.29 1006.31 1006.40 1006.66 1007.29 1007.83 1008.29 1008.74 1008.95 1009.43 1010.05 1010.18 1011.24 1011.87 1012.46 1012.99 1013.05 1013.70 1014.04 1014.06 1014.07 1014.32 1014.93 1015.26 1015.40 1015.87 1016.21 1015.88 1015.39 1015.05 1014.47 1014.09 1013.81 1013.50 1012.92 1012.85 1012.96 1012.58 1012.32 1012.06 1011.78 1011.83 1011.76
1004.77 1005.44 1005.45 1006.02 1006.96 1007.27 1008.96 1009.44 1008.99 1009.32 1010.04 1010.58 1010.16 1011.40 1011.67 1012.85 1013.29 1013.76 1014.14 1014.12 1014.07 1014.31 1014.81 1015.20 1015.38 1015.70 1015.96 1016.01 1015.90 1015.56 1015.00 1014.61 1014.14 1013.90 1013.69 1013.25 1013.00 1012.95 1013.11 1012.84 1012.56 1012.19 1012.17 1012.11
1005.02 1005.02 1005.07 1005.39 1006.54 1007.50 1008.83 1009.49 1009.64 1009.75 1010.43 1010.98 1012.04 1012.41 1013.06 1013.58 1013.98 1014.31 1014.36 1014.49 1014.82 1015.24 1015.71 1015.99 1016.25 1016.30 1016.21 1016.16 1016.02 1015.56 1014.97 1014.53 1014.41 1014.23 1013.99 1013.52 1013.19 1012.84 1012.52 1012.80 1012.68 1012.43 1012.04 1011.76
1005.49 1005.24 1006.07 1006.47 1007.18 1008.32 1009.29 1010.05 1010.05 1010.13 1011.39 1011.96 1012.51 1013.03 1013.39 1013.71 1014.27 1014.54 1014.80 1015.07 1015.48 1015.92 1016.25 1016.52 1016.63 1016.70 1016.69 1016.36 1015.90 1015.43 1015.10 1014.86 1014.52 1014.21 1014.05 1013.89 1013.57 1013.20 1012.61 1012.16 1012.30 1012.20 1011.79 1011.82
1005.39 1005.44 1005.51 1006.51 1007.47 1008.60 1009.78 1010.10 1010.11 1010.90 1011.64 1012.17 1012.41 1012.71 1013.29 1013.88 1014.39 1014.90 1015.27 1015.58 1015.83 1016.08 1016.46 1016.69 1016.87 1017.03 1017.05 1016.81 1016.25 1015.68 1015.14 1014.75 1014.56 1014.42 1014.22 1014.15 1013.86 1013.36 1012.82 1012.21 1012.08 1012.23 1012.19 1012.12
1005.60 1005.75 1006.23 1006.68 1007.79 1008.90 1009.68 1009.90 1010.31 1011.09 1011.70 1012.45 1013.11 1013.57 1013.94 1014.29 1014.65 1015.35 1015.78 1015.96 1016.16 1016.36 1016.76 1016.81 1016.98 1017.18 1017.05 1016.98 1016.59 1015.79 1015.31 1015.39 1015.07 1014.53 1014.45 1014.22 1014.22 1013.99 1013.41 1012.97 1012.72 1012.56 1012.57 1012.68
1005.84 1006.48 1006.44 1006.92 1007.74 1008.70 1009.21 1009.73 1010.37 1011.06 1011.89 1012.64 1013.22 1013.77 1014.24 1014.69 1015.18 1015.46 1015.84 1016.24 1016.48 1016.67 1016.76 1016.78 1016.98 1017.11 1017.07 1016.88 1016.68 1016.29 1015.88 1015.48 1015.59 1014.76 1014.70 1014.73 1014.64 1014.56 1014.25 1013.78 1013.34 1013.22 1013.48 1013.56
1005.24 1005.66 1006.60 1006.80 1007.88 1008.90 1009.69 1010.43 1010.97 1011.52 1012.11 1012.79 1013.40 1013.87 1014.30 1014.71 1014.89 1015.31 1015.72 1016.15 1016.48 1016.61 1016.65 1016.65 1016.92 1017.02 1017.07 1016.87 1016.78 1016.41 1016.04 1015.98 1015.75 1015.63 1015.36 1015.06 1014.96 1014.85 1014.67 1014.43 1014.08 1013.89 1013.84 1013.95
1005.58 1007.06 1007.24 1007.99 1008.54 1009.32 1010.26 1010.98 1011.38 1011.77 1012.38 1012.96 1013.51 1013.92 1014.32 1014.66 1014.96 1015.44 1015.95 1016.20 1016.25 1016.32 1016.68 1016.80 1017.24 1017.16 1017.15 1017.28 1016.99 1016.33 1016.03 1015.78 1015.99 1015.99 1015.90 1015.47 1015.22 1015.16 1015.16 1015.05 1014.80 1014.76 1014.56 1014.33
1006.83 1007.43 1008.04 1008.66 1009.27 1009.85 1010.54 1011.24 1011.65 1012.14 1012.69 1013.16 1013.64 1014.17 1014.54 1014.85 1015.20 1015.72 1016.12 1016.28 1016.28 1016.43 1016.78 1016.87 1017.06 1017.36 1017.41 1017.50 1017.30 1016.55 1016.25 1016.22 1016.37 1016.38 1016.15 1015.86 1015.52 1015.55 1015.48 1015.58 1015.44 1015.17 1015.10 1015.03
1007.56 1007.93 1008.51 1009.18 1009.85 1010.36 1010.84 1011.29 1011.73 1012.26 1012.87 1013.30 1013.60 1014.01 1014.42 1014.88 1015.31 1015.81 1016.07 1016.07 1016.53 1016.68 1016.69 1016.99 1016.98 1017.26 1017.37 1017.47 1017.33 1017.15 1016.97 1016.80 1016.82 1016.71 1016.39 1016.08 1015.79 1015.67 1015.53 1015.77 1015.90 1015.73 1015.69 1015.68
1008.36 1008.71 1009.27 1009.79 1010.34 1010.97 1011.39 1011.69 1012.06 1012.49 1012.88 1013.35 1013.65 1014.10 1014.53 1014.94 1015.47 1015.86 1016.09 1016.01 1016.22 1016.79 1016.75 1016.80 1017.21 1017.60 1017.64 1017.51 1017.67 1017.67 1017.68 1017.40 1017.33 1017.04 1016.73 1016.49 1016.19 1015.94 1015.84 1016.05 1016.25 1016.20 1016.10 1016.29
1008.99 1009.51 1010.11 1010.32 1010.88 1011.43 1011.89 1012.21 1012.46 1012.69 1013.04 1013.42 1013.70 1014.14 1014.47 1014.76 1015.23 1015.61 1016.05 1016.33 1016.29 1016.57 1016.56 1016.67 1017.19 1017.57 1017.67 1017.61 1017.81 1018.10 1018.13 1017.90 1017.69 1017.38 1017.17 1016.91 1016.74 1016.44 1016.37 1016.56 1016.66 1016.69 1016.63 1016.75
1010.07 1010.02 1010.81 1011.06 1011.62 1012.00 1012.32 1012.84 1013.04 1013.26 1013.43 1013.67 1013.92 1014.28 1014.52 1014.92 1015.78 1015.80 1015.81 1016.07 1016.23 1016.46 1016.38 1016.29 1016.74 1017.22 1017.40 1017.46 1017.67 1018.06 1018.07 1018.26 1018.09 1017.75 1017.69 1017.46 1017.26 1017.01 1017.03 1017.24 1017.38 1017.40 1017.21 1017.32
1010.78 1011.05 1011.36 1011.71 1012.09 1012.38 1012.71 1013.23 1013.35 1013.53 1013.71 1013.89 1014.20 1014.55 1014.73 1015.16 1015.31 1015.75 1015.68 1015.73 1016.07 1016.05 1015.96 1016.46 1016.74 1017.07 1017.04 1017.29 1017.41 1017.74 1018.08 1018.41 1018.51 1018.44 1018.30 1018.05 1017.93 1017.75 1017.64 1017.89 1018.03 1017.97 1017.57 1017.86
1011.95 1012.16 1012.24 1012.25 1012.41 1012.59 1012.96 1013.32 1013.32 1013.49 1013.75 1013.92 1014.47 1014.68 1015.15 1015.49 1015.74 1015.82 1015.91 1016.01 1015.97 1016.16 1015.98 1016.28 1016.50 1016.72 1016.79 1017.08 1017.16 1017.40 1017.71 1018.17 1018.41 1018.77 1018.92 1018.76 1018.43 1018.30 1018.43 1018.41 1018.42 1018.24 1018.45 1018.67
1012.66 1012.77 1012.89 1013.05 1013.28 1013.50 1013.84 1013.89 1013.86 1013.95 1014.12 1014.18 1014.55 1015.09 1015.45 1015.78 1015.96 1015.84 1015.98 1016.03 1016.13 1016.19 1016.19 1016.21 1016.24 1016.40 1016.42 1016.66 1016.86 1017.16 1017.42 1017.69 1017.97 1018.35 1018.61 1018.99 1018.85 1018.74 1018.87 1018.80 1018.91 1018.95 1019.15 1019.02
Wind_Speed
9 6 8 8 13 12 11 8 9 9 10 11 15 11 9 9 7 8 7 9 10 11 11 11 11 10 9 8 7 5 3 2 3 4 5 8 10 12 12 12 13 13 13 11
8 6 10 9 11 11 8 5 8 7 9 4 13 13 8 6 7 5 3 5 4 8 6 12 11 10 9 8 7 7 4 2 1 3 3 5 9 8 10 12 13 12 12 11
15 7 6 9 13 13 6 7 4 8 3 14 15 13 11 8 6 5 3 4 2 2 2 5 9 12 7 10 9 7 7 6 5 5 5 3 6 4 8 12 12 11 9 7
11 8 16 2 2 9 11 4 8 2 8 15 15 11 10 6 7 7 7 5 6 7 7 8 7 10 6 7 8 7 9 10 9 8 8 6 7 7 6 9 10 7 4 6
8 12 4 3 5 9 12 8 8 9 13 15 16 14 8 8 7 8 8 6 7 8 10 11 11 10 9 4 5 6 6 8 9 8 8 8 9 8 7 5 6 3 4 5
5 14 16 8 10 8 6 7 12 15 18 20 19 12 10 14 12 10 9 7 8 10 11 12 10 7 5 3 5 7 9 9 10 9 9 10 9 10 8 9 7 5 5 2
9 8 3 1 7 7 9 3 17 18 20 20 16 5 15 17 13 11 10 10 8 9 9 8 6 5 5 4 5 8 9 8 9 10 10 9 9 8 7 7 8 8 4 3
4 8 12 6 7 6 2 3 16 19 19 15 2 11 19 17 14 13 13 12 9 8 8 7 6 5 5 9 10 11 12 10 9 10 9 7 10 7 6 6 5 2 4 5
6 6 4 1 3 5 5 4 12 17 17 13 12 12 12 12 12 9 7 9 7 6 8 7 7 7 7 7 9 10 10 10 11 10 9 10 8 9 4 5 6 4 4 3
7 6 9 8 5 1 3 5 6 11 13 12 15 13 10 9 7 6 6 6 5 5 6 7 7 8 9 9 9 9 10 10 10 10 10 7 7 5 4 2 3 4 3 3
3 4 5 7 10 8 4 7 11 13 12 8 11 13 11 8 6 7 5 3 4 7 8 9 8 10 9 9 9 9 8 8 8 8 8 7 3 4 2 3 3 3 2 1
7 9 3 4 10 15 9 12 15 15 12 6 10 9 10 7 5 5 5 4 7 9 8 9 11 11 11 11 10 9 8 7 7 8 7 6 6 1 3 4 6 5 2 2
6 5 9 11 12 14 12 13 14 16 12 14 8 9 9 8 6 5 5 5 5 6 6 5 6 7 10 10 9 8 8 8 7 6 6 7 7 7 3 3 4 3 3 8
3 11 7 9 10 13 12 12 12 14 10 10 11 9 9 9 8 6 5 6 6 5 5 4 5 6 8 9 10 9 8 4 7 7 7 7 6 7 8 4 4 2 3 6
11 7 9 11 15 15 13 13 14 12 9 8 6 6 6 7 7 6 6 6 6 5 4 3 4 5 6 8 9 8 7 6 7 6 6 6 6 6 7 4 1 1 1 2
10 10 18 20 19 17 15 13 13 11 9 8 6 6 6 6 7 8 7 7 5 3 3 3 5 6 6 7 9 6 6 6 6 6 6 6 5 5 6 5 3 2 2 4
15 12 14 19 17 18 15 11 10 10 9 8 8 7 8 8 9 8 7 6 5 4 4 5 5 5 6 7 7 6 6 6 9 6 6 6 5 5 5 5 4 2 2 4
6 8 11 16 16 14 11 10 10 10 9 8 8 8 9 10 8 7 6 6 6 5 5 6 5 5 6 8 6 5 4 5 6 6 5 5 5 4 4 4 4 4 3 3
20 12 13 12 13 13 12 10 11 10 9 9 10 10 9 8 8 8 7 6 6 5 5 4 5 3 6 9 10 5 6 6 5 5 6 5 3 3 3 3 2 3 3 3
11 12 14 13 12 13 12 9 9 9 8 10 10 10 10 9 9 10 8 5 4 4 4 4 5 5 6 7 8 6 7 8 6 5 4 4 2 1 0 2 2 3 3 3
11 12 13 12 11 8 8 8 9 9 9 10 12 12 10 9 11 10 8 6 5 4 5 5 5 5 5 6 7 7 7 7 6 5 4 4 3 2 2 1 1 3 4 4
10 11 13 12 11 9 8 7 7 8 9 9 9 10 11 11 10 7 4 4 5 5 3 4 4 6 6 6 7 8 7 7 6 4 4 4 4 4 4 3 3 4 5 5
12 12 10 11 10 9 7 5 5 6 8 10 11 12 11 8 7 8 4 4 4 7 4 3 7 7 7 6 6 6 7 6 6 6 5 4 4 5 5 4 4 4 5 5
10 12 11 11 10 8 8 5 6 6 7 8 10 11 10 7 3 2 4 5 6 4 6 4 5 8 5 4 5 5 7 7 6 6 5 6 5 5 6 5 6 5 5 6
9 9 9 9 7 6 8 6 6 7 8 7 8 8 7 4 4 4 4 2 3 3 0 4 8 10 4 4 4 4 5 6 7 7 7 6 6 7 7 5 5 4 6 5
6 4 5 5 4 5 5 5 5 6 6 7 5 5 6 4 4 5 4 4 4 2 4 5 4 5 3 4 5 5 4 6 6 8 9 8 6 7 5 4 3 5 5 5
6 6 6 5 4 4 3 3 4 5 5 6 7 5 4 4 4 6 6 5 4 2 1 1 2 2 3 4 5 6 5 4 6 7 7 6 3 4 3 3 3 4 3 3
Wind_Direction
230 229 209 197 183 177 197 229 239 248 218 202 193 183 156 150 167 150 116 90 88 85 90 69 51 47 43 41 23 8 67 102 239 243 241 262 263 259 256 246 241 237 231 225
231 199 213 214 196 188 207 184 232 239 249 240 156 150 154 185 180 212 136 88 71 99 100 107 88 39 29 42 18 287 325 93 276 258 285 285 282 280 274 261 251 241 236 233
233 210 201 235 209 197 189 198 208 208 230 150 158 159 168 197 218 225 227 101 150 195 54 48 99 97 32 358 6 338 335 348 342 292 279 282 302 253 259 267 260 248 241 244
233 167 226 172 244 234 216 193 197 171 163 172 157 136 140 155 158 141 134 120 99 108 78 54 46 61 91 27 357 332 339 334 332 318 314 313 290 287 252 248 251 242 190 95
217 216 245 154 173 175 188 197 211 186 156 154 139 132 135 155 143 117 107 86 71 59 71 57 44 27 18 21 303 352 333 310 312 307 298 293 279 264 262 237 162 180 203 150
169 222 232 214 181 176 152 226 187 177 170 163 157 170 163 167 151 131 116 95 80 70 65 56 25 25 39 344 344 344 330 317 310 313 312 298 290 270 261 233 220 196 273 328
195 225 210 183 148 151 203 254 177 186 174 171 190 166 142 151 142 130 121 107 94 83 78 66 56 53 58 47 2 340 334 320 327 330 316 304 299 272 268 244 234 225 195 10
148 229 225 152 126 205 333 296 191 178 168 175 348 128 141 142 140 143 139 127 123 119 109 91 66 62 48 25 357 353 345 348 349 333 321 320 316 309 237 264 256 326 332 323
222 229 139 78 337 340 275 218 184 172 162 152 143 129 131 128 129 131 113 105 108 109 108 102 78 62 44 11 360 352 351 349 344 336 340 334 346 348 325 237 263 248 262 334
158 176 168 154 129 35 247 210 204 163 152 159 138 134 132 120 114 107 82 87 101 97 77 62 54 44 29 10 357 355 352 349 348 342 339 344 353 13 7 358 264 292 311 187
170 171 172 121 92 87 95 145 145 147 144 136 123 129 148 123 125 102 98 100 62 47 40 43 29 23 26 10 357 353 344 343 343 343 334 337 57 358 348 351 314 325 57 227
231 175 144 149 127 118 175 152 138 131 123 110 101 113 106 121 111 136 136 91 61 46 32 22 18 11 5 1 355 343 339 347 348 339 333 339 333 157 43 11 344 19 62 65
260 187 210 143 151 143 169 154 150 133 130 127 136 133 145 141 139 119 106 92 92 78 60 37 21 8 357 352 345 340 342 342 337 339 332 341 338 324 261 192 259 323 22 26
204 106 100 166 162 152 160 157 135 113 126 131 136 136 133 123 125 120 122 117 110 110 99 78 39 13 353 346 342 341 337 350 332 340 338 338 335 320 311 248 214 213 14 24
197 193 193 144 131 145 158 148 128 133 131 118 98 107 127 144 147 139 124 131 132 132 118 80 58 36 4 348 341 337 338 346 340 331 335 332 329 332 321 330 7 88 248 199
159 145 150 145 145 151 161 154 146 149 146 138 155 158 161 161 148 149 150 147 168 169 128 94 60 27 18 4 350 346 338 352 325 340 336 345 346 329 333 332 327 7 12 12
123 142 156 147 153 164 172 164 161 158 157 166 178 158 155 155 162 156 150 147 141 119 108 88 64 37 20 12 2 355 337 343 342 338 343 344 345 343 321 322 319 3 32 355
122 125 151 144 153 160 158 168 170 169 172 173 163 162 166 175 176 165 143 137 146 122 116 96 58 36 18 5 354 355 351 354 346 339 329 332 337 343 337 341 355 342 353 349
123 152 162 157 153 149 155 169 176 167 157 167 166 174 178 181 171 157 155 162 147 129 84 111 101 51 34 18 337 358 360 7 1 341 324 319 326 344 343 339 23 16 358 17
121 125 141 133 141 154 158 170 162 158 160 168 166 167 173 169 167 163 165 145 102 96 133 94 88 53 39 20 351 15 14 7 357 338 324 322 2 331 91 5 344 62 54 49
137 135 133 139 142 143 157 160 163 160 159 169 169 168 168 162 166 162 158 154 150 150 100 108 72 63 52 32 19 32 13 11 350 343 345 347 352 43 80 77 55 73 73 63
122 123 121 119 121 120 125 134 142 144 154 162 168 160 155 155 161 159 147 141 152 179 152 115 105 75 70 54 46 34 20 18 359 359 17 25 27 44 52 69 80 82 80 75
117 115 120 121 125 122 121 125 138 156 161 163 166 165 168 162 162 158 166 199 197 181 203 208 131 127 116 72 63 45 40 24 16 21 14 37 42 59 64 57 64 80 83 79
114 111 113 114 126 132 132 126 134 139 146 153 163 168 162 154 135 161 132 163 228 179 226 247 176 162 180 120 92 74 60 46 29 20 20 25 43 64 69 59 69 59 69 63
87 95 106 125 138 136 126 138 140 144 137 135 149 157 165 142 162 154 164 153 64 291 316 124 157 154 184 152 129 102 100 87 65 48 30 39 44 47 59 62 77 52 67 66
86 85 103 113 115 130 131 163 144 150 148 137 124 140 143 144 133 141 131 111 98 99 107 137 153 190 185 192 158 154 147 134 126 90 73 29 30 47 43 55 57 57 65 77
81 81 94 91 75 87 101 116 133 134 144 140 128 133 127 117 119 135 130 124 110 99 67 352 281 246 255 225 196 169 180 174 154 157 142 144 101 29 24 54 55 67 64 72